College Station, TX

9:59 AM CDT on July 24, 2017 (GMT -0500)
Easterwood

Weather History for KCLL - November, 2010

Change the Weather History Date:

Thursday, November 18, 2010

  Actual Average Record
Temperature  
Mean Temperature 54 °F 60 °F  
Max Temperature 65 °F 70 °F 84 °F (1921)
Min Temperature 43 °F 50 °F 24 °F (1959)
Degree Days  
Heating Degree Days 11 7  
Month to date heating degree days 100 84  
Since 1 July heating degree days 112 121  
Cooling Degree Days 0 1  
Month to date cooling degree days 35 48  
Year to date cooling degree days 3350 3060  
Growing Degree Days 4 (Base 50)    
Moisture  
Dew Point 38 °F    
Average Humidity 58    
Maximum Humidity 82    
Minimum Humidity 34    
Precipitation  
Precipitation 0.00 in 0.10 in 1.89 in (1971)
Month to date precipitation 0.73 2.02  
Year to date precipitation 26.80 35.63  
Sea Level Pressure  
Sea Level Pressure 30.33 in    
Wind  
Wind Speed 8 mph (NNW)    
Max Wind Speed 20 mph    
Max Gust Speed 25 mph    
Visibility 10 miles    
Events      
T = Trace of Precipitation, MM = Missing Value Source: NWS Daily Summary

Daily Weather History Graph

Daily Weather History Graph

Search for Another Location

Airport or City:

Trip Planner

Search our weather history database for the weather conditions in past years. The results will help you decide how hot, cold, wet, or windy it might be!

Date:

Astronomy

Nov. 18, 2010 Rise Set
Actual Time 6:54 AM CST 5:26 PM CST
Civil Twilight 6:28 AM CST 5:52 PM CST
Nautical Twilight 5:59 AM CST 6:21 PM CST
Astronomical Twilight 5:30 AM CST 6:50 PM CST
Moon 3:21 PM CST (11/18) 4:00 AM CST (11/18)
Length of Visible Light 11h 24m
Length of Day
10h 32m
Waxing Gibbous, 91% of the Moon is Illuminated
Nov 18
Waxing Gibbous
Nov 21
Full
Nov 28
Last Quarter
Dec 5
New
Dec 13
First Quarter

Hourly Weather History & Observations

Time (CST) Temp. Windchill Dew Point Humidity Pressure Visibility Wind Dir Wind Speed Gust Speed Precip Events Conditions
12:53 AM 52.0 °F - 39.0 °F 61% 30.28 in 10.0 mi NNW 12.7 mph - N/A   Clear
1:53 AM 50.0 °F - 39.0 °F 66% 30.30 in 10.0 mi NNW 6.9 mph - N/A   Clear
2:53 AM 48.0 °F - 39.0 °F 71% 30.30 in 10.0 mi NNW 9.2 mph - N/A   Clear
3:53 AM 46.0 °F 43.9 °F 37.9 °F 73% 30.32 in 10.0 mi NW 4.6 mph - N/A   Clear
4:53 AM 44.1 °F 40.8 °F 37.9 °F 79% 30.33 in 10.0 mi WNW 5.8 mph - N/A   Clear
5:53 AM 43.0 °F 37.7 °F 37.9 °F 82% 30.34 in 10.0 mi NW 9.2 mph - N/A   Clear
6:53 AM 43.0 °F 38.2 °F 37.0 °F 80% 30.36 in 10.0 mi NW 8.1 mph - N/A   Clear
7:53 AM 46.0 °F 41.4 °F 37.9 °F 73% 30.40 in 10.0 mi NNW 9.2 mph - N/A   Clear
8:53 AM 48.9 °F - 37.9 °F 66% 30.40 in 10.0 mi North 13.8 mph 21.9 mph N/A   Clear
9:53 AM 53.1 °F - 39.0 °F 59% 30.41 in 10.0 mi NNW 13.8 mph - N/A   Clear
10:53 AM 57.0 °F - 39.0 °F 51% 30.40 in 10.0 mi NNW 11.5 mph - N/A   Clear
11:53 AM 57.9 °F - 39.0 °F 49% 30.38 in 10.0 mi NW 11.5 mph - N/A   Clear
12:53 PM 61.0 °F - 39.0 °F 44% 30.34 in 10.0 mi NW 11.5 mph 16.1 mph N/A   Clear
1:53 PM 64.4 °F - 39.2 °F 40% 30.31 in 10.0 mi NNE 9.2 mph - N/A   Clear
2:53 PM 64.9 °F - 37.9 °F 37% 30.30 in 10.0 mi NNE 11.5 mph - N/A   Clear
3:53 PM 64.0 °F - 36.0 °F 35% 30.29 in 10.0 mi NNW 9.2 mph - N/A   Clear
4:53 PM 62.1 °F - 37.0 °F 39% 30.28 in 10.0 mi North 9.2 mph - N/A   Clear
5:53 PM 55.9 °F - 37.9 °F 51% 30.29 in 10.0 mi North 3.5 mph - N/A   Clear
6:53 PM 53.1 °F - 37.9 °F 57% 30.31 in 10.0 mi North 4.6 mph - N/A   Clear
7:53 PM 48.9 °F - 37.9 °F 66% 30.31 in 10.0 mi NNE 5.8 mph - N/A   Clear
8:53 PM 50.0 °F - 39.0 °F 66% 30.32 in 10.0 mi Calm Calm - N/A   Clear
9:53 PM 50.0 °F - 39.0 °F 66% 30.32 in 10.0 mi ENE 3.5 mph - N/A   Clear
10:53 PM 48.9 °F - 39.0 °F 69% 30.31 in 10.0 mi ENE 3.5 mph - N/A   Clear
11:53 PM 46.9 °F - 39.0 °F 74% 30.29 in 10.0 mi NE 3.5 mph - N/A   Clear